Stündliche Wetter Abercarn

Heute, 21 Juni, Montag

Zeit Temperatur Niederschläge Wind Luftdruck Luftfeuchtigkeit
00:00 +10°C° 0 mm 5 m/S 740 mmHg 88%
01:00 +10°C° 0 mm 5 m/S 740 mmHg 88%
02:00 +9°C° 0 mm 5 m/S 740 mmHg 87%
03:00 +9°C° 0 mm 5 m/S 740 mmHg 87%
04:00 +9°C° 0 mm 5 m/S 740 mmHg 85%
05:00 +9°C° 0 mm 6 m/S 740 mmHg 82%
06:00 +9°C° 0 mm 6 m/S 741 mmHg 80%
07:00 +9°C° 0 mm 6 m/S 741 mmHg 77%
08:00 +10°C° 0 mm 7 m/S 741 mmHg 74%
09:00 +11°C° 0 mm 7 m/S 742 mmHg 72%
10:00 +12°C° 0 mm 7 m/S 742 mmHg 71%
11:00 +12°C° 0 mm 7 m/S 742 mmHg 70%
12:00 +14°C° 0 mm 7 m/S 742 mmHg 68%
13:00 +14°C° 0 mm 7 m/S 743 mmHg 70%
14:00 +14°C° 0 mm 7 m/S 743 mmHg 72%
15:00 +14°C° 0 mm 7 m/S 743 mmHg 74%
16:00 +14°C° 0.1 mm 6 m/S 743 mmHg 76%
17:00 +13°C° 0.1 mm 6 m/S 744 mmHg 78%
18:00 +13°C° 0.1 mm 5 m/S 744 mmHg 81%
19:00 +12°C° 0.1 mm 5 m/S 745 mmHg 84%
20:00 +12°C° 0.1 mm 5 m/S 745 mmHg 87%
21:00 +10°C° 0.1 mm 5 m/S 746 mmHg 91%
22:00 +9°C° 0.1 mm 5 m/S 746 mmHg 90%
23:00 +9°C° 0.1 mm 5 m/S 746 mmHg 90%

Morgen, 22 Juni, Dienstag

Zeit Temperatur Niederschläge Wind Luftdruck Luftfeuchtigkeit
00:00 +9°C° 0.1 mm 6 m/S 746 mmHg 89%
01:00 +8°C° 0.1 mm 6 m/S 747 mmHg 89%
02:00 +8°C° 0.1 mm 5 m/S 747 mmHg 88%
03:00 +8°C° 0.1 mm 5 m/S 747 mmHg 87%
04:00 +8°C° 0 mm 5 m/S 747 mmHg 86%
05:00 +8°C° 0 mm 6 m/S 748 mmHg 84%
06:00 +8°C° 0 mm 6 m/S 748 mmHg 83%
07:00 +9°C° 0 mm 6 m/S 748 mmHg 77%
08:00 +10°C° 0 mm 7 m/S 748 mmHg 71%
09:00 +11°C° 0 mm 7 m/S 749 mmHg 65%
10:00 +12°C° 0 mm 7 m/S 749 mmHg 62%
11:00 +14°C° 0 mm 7 m/S 749 mmHg 59%
12:00 +15°C° 0 mm 7 m/S 749 mmHg 56%
13:00 +16°C° 0 mm 6 m/S 749 mmHg 55%
14:00 +16°C° 0 mm 6 m/S 749 mmHg 54%
15:00 +17°C° 0 mm 5 m/S 749 mmHg 54%
16:00 +17°C° 0 mm 4 m/S 749 mmHg 58%
17:00 +17°C° 0 mm 4 m/S 749 mmHg 63%
18:00 +17°C° 0 mm 3 m/S 749 mmHg 68%
19:00 +14°C° 0 mm 3 m/S 749 mmHg 73%
20:00 +14°C° 0 mm 2 m/S 750 mmHg 79%
21:00 +12°C° 0 mm 2 m/S 750 mmHg 84%
22:00 +10°C° 0 mm 2 m/S 750 mmHg 86%
23:00 +9°C° 0 mm 2 m/S 750 mmHg 88%

übermorgen, 23 Juni, Mittwoch

Zeit Temperatur Niederschläge Wind Luftdruck Luftfeuchtigkeit
00:00 +9°C° 0 mm 2 m/S 750 mmHg 90%
01:00 +8°C° 0 mm 2 m/S 750 mmHg 90%
02:00 +7°C° 0 mm 2 m/S 750 mmHg 90%
03:00 +7°C° 0 mm 2 m/S 750 mmHg 90%
04:00 +8°C° 0 mm 2 m/S 750 mmHg 88%
05:00 +9°C° 0 mm 2 m/S 750 mmHg 85%
06:00 +9°C° 0 mm 2 m/S 751 mmHg 83%
07:00 +12°C° 0 mm 1 m/S 750 mmHg 76%
08:00 +14°C° 0 mm 1 m/S 750 mmHg 70%
09:00 +15°C° 0 mm 1 m/S 750 mmHg 64%
10:00 +16°C° 0 mm 1 m/S 750 mmHg 61%
11:00 +17°C° 0 mm 2 m/S 750 mmHg 58%
12:00 +18°C° 0 mm 2 m/S 750 mmHg 56%
13:00 +18°C° 0 mm 2 m/S 750 mmHg 56%
14:00 +18°C° 0 mm 2 m/S 750 mmHg 55%
15:00 +19°C° 0 mm 2 m/S 750 mmHg 55%
16:00 +18°C° 0 mm 2 m/S 750 mmHg 59%
17:00 +18°C° 0 mm 2 m/S 750 mmHg 63%
18:00 +18°C° 0 mm 2 m/S 750 mmHg 67%
19:00 +16°C° 0 mm 2 m/S 750 mmHg 72%
20:00 +14°C° 0 mm 1 m/S 750 mmHg 77%
21:00 +13°C° 0 mm 1 m/S 750 mmHg 81%
22:00 +12°C° 0 mm 1 m/S 750 mmHg 82%
23:00 +12°C° 0 mm 1 m/S 750 mmHg 83%

24 Juni, Donnerstag

Zeit Temperatur Niederschläge Wind Luftdruck Luftfeuchtigkeit
00:00 +11°C° 0 mm 1 m/S 750 mmHg 84%
01:00 +11°C° 0 mm 1 m/S 750 mmHg 85%
02:00 +9°C° 0 mm 2 m/S 750 mmHg 87%
03:00 +9°C° 0 mm 2 m/S 750 mmHg 88%
04:00 +11°C° 0 mm 1 m/S 750 mmHg 86%
05:00 +12°C° 0 mm 1 m/S 750 mmHg 84%
06:00 +13°C° 0 mm 1 m/S 750 mmHg 83%
07:00 +14°C° 0 mm 1 m/S 750 mmHg 78%
08:00 +16°C° 0 mm 1 m/S 750 mmHg 73%
09:00 +19°C° 0 mm 1 m/S 750 mmHg 68%
10:00 +20°C° 0 mm 1 m/S 750 mmHg 65%
11:00 +21°C° 0 mm 1 m/S 750 mmHg 61%
12:00 +22°C° 0 mm 1 m/S 750 mmHg 58%
13:00 +21°C° 0 mm 2 m/S 749 mmHg 59%
14:00 +21°C° 0 mm 2 m/S 749 mmHg 59%
15:00 +21°C° 0 mm 3 m/S 749 mmHg 60%
16:00 +20°C° 0 mm 3 m/S 749 mmHg 65%
17:00 +20°C° 0 mm 3 m/S 749 mmHg 70%
18:00 +19°C° 0 mm 3 m/S 749 mmHg 75%
19:00 +17°C° 0 mm 3 m/S 749 mmHg 81%
20:00 +16°C° 0 mm 3 m/S 749 mmHg 86%
21:00 +14°C° 0 mm 2 m/S 749 mmHg 92%
22:00 +14°C° 0 mm 2 m/S 749 mmHg 92%
23:00 +14°C° 0 mm 2 m/S 749 mmHg 93%

25 Juni, Freitag

Zeit Temperatur Niederschläge Wind Luftdruck Luftfeuchtigkeit
00:00 +13°C° 0 mm 2 m/S 749 mmHg 93%
01:00 +13°C° 0 mm 1 m/S 749 mmHg 93%
02:00 +13°C° 0 mm 1 m/S 749 mmHg 92%
03:00 +13°C° 0 mm 1 m/S 749 mmHg 92%
04:00 +14°C° 0 mm 1 m/S 749 mmHg 90%
05:00 +14°C° 0 mm 1 m/S 749 mmHg 89%
06:00 +14°C° 0 mm 0 m/S 749 mmHg 87%
07:00 +15°C° 0 mm 0 m/S 749 mmHg 84%
08:00 +16°C° 0 mm 0 m/S 749 mmHg 82%
09:00 +17°C° 0 mm 0 m/S 749 mmHg 79%
10:00 +20°C° 0 mm 1 m/S 749 mmHg 76%
11:00 +21°C° 0 mm 1 m/S 749 mmHg 74%
12:00 +22°C° 0 mm 1 m/S 749 mmHg 71%
13:00 +21°C° 0.2 mm 2 m/S 749 mmHg 71%
14:00 +21°C° 0.2 mm 3 m/S 749 mmHg 70%
15:00 +21°C° 0.2 mm 3 m/S 749 mmHg 70%
16:00 +21°C° 0.1 mm 3 m/S 749 mmHg 72%
17:00 +20°C° 0.1 mm 3 m/S 749 mmHg 75%
18:00 +20°C° 0.1 mm 3 m/S 749 mmHg 78%
19:00 +18°C° 0 mm 3 m/S 749 mmHg 82%
20:00 +17°C° 0 mm 2 m/S 749 mmHg 86%
21:00 +15°C° 0 mm 2 m/S 750 mmHg 90%
22:00 +15°C° 0 mm 2 m/S 750 mmHg 91%
23:00 +14°C° 0 mm 2 m/S 750 mmHg 91%

26 Juni, Samstag

Zeit Temperatur Niederschläge Wind Luftdruck Luftfeuchtigkeit
00:00 +14°C° 0 mm 1 m/S 750 mmHg 91%
01:00 +14°C° 0 mm 1 m/S 750 mmHg 92%
02:00 +13°C° 0 mm 1 m/S 750 mmHg 92%
03:00 +13°C° 0 mm 1 m/S 750 mmHg 92%
04:00 +14°C° 0 mm 1 m/S 750 mmHg 91%
05:00 +15°C° 0 mm 1 m/S 750 mmHg 90%
06:00 +16°C° 0 mm 1 m/S 750 mmHg 88%
07:00 +18°C° 0 mm 1 m/S 750 mmHg 85%
08:00 +19°C° 0 mm 1 m/S 751 mmHg 81%
09:00 +21°C° 0 mm 1 m/S 751 mmHg 78%
10:00 +22°C° 0 mm 1 m/S 751 mmHg 74%
11:00 +23°C° 0 mm 1 m/S 750 mmHg 70%
12:00 +23°C° 0 mm 1 m/S 750 mmHg 67%
13:00 +24°C° 0 mm 2 m/S 750 mmHg 66%
14:00 +24°C° 0 mm 2 m/S 750 mmHg 65%
15:00 +24°C° 0 mm 2 m/S 750 mmHg 64%
16:00 +23°C° 0.1 mm 2 m/S 750 mmHg 68%
17:00 +23°C° 0.1 mm 2 m/S 750 mmHg 72%
18:00 +21°C° 0.1 mm 2 m/S 750 mmHg 76%
19:00 +20°C° 0 mm 2 m/S 750 mmHg 80%
20:00 +18°C° 0 mm 2 m/S 750 mmHg 85%
21:00 +18°C° 0 mm 1 m/S 750 mmHg 89%
22:00 +18°C° 0 mm 1 m/S 750 mmHg 90%
23:00 +16°C° 0 mm 1 m/S 750 mmHg 91%
Mehr zeigen

Wir brauchen deine Erlaubnis

Meteoprog und unser Service Anbieter werden persönliche Daten aufbewahren, so wie Cookies, Geräte Bezeichnung oder ähnliche Technologien von deinem Gerät und Prozess, so wie Persönliche Daten Inhalte und Werbungen, genauso wie social Media und den Verkehr zu analysieren.

  • Aufbewahrung und/oder Zugang zu deiner Geräte Informationen.

    Cookies, Geräte Bezeichnung oder andere Informationen, können aufbewahrt oder Zugang zu deinem Gerät erhalten, für den Grund, der oben angegeben wird.

  • Personalisierte Werbung und Inhalte, Messungen, Einblick in das Publikum und Produkt Entwicklung.

    Werbungen und Inhalte können personalisiert werden, basierend auf ein Profil. Mehr Daten können besser personalisierte Werbungen und Inhalte hinzufügen. Werbung und Inhalte können gezeigt und gemessen werden. Einblicke über das Publikum, welche die Werbung gesehen haben und den Inhalt, können abgeleitet werden. So wie Daten können genutzt werden, um es zu verbessern oder die Benutzer Erfahrung zu verbessern das System und die Software.

Wenn du “Ich stimme zu” klickst, erlaubst du uns, die Cookies zu benutzen die Geräte Bezeichnung, den Web oder ähnliche Technologien zu benutzen. Deine Settings, können in deinem Gerät bei deinem Browser geändert werden.

Für den bestimmten Zweck, berechtigten Interessen beruhen darauf, mehr als auf den Inhalt. Du kannst mehr darüber in unseren Privaten und Cookie Politik lesen.